Regional Weather Roundup
Issued by NWS Jackson, KY

Home | Current Version | Previous Version | Graphics & Text | Print | Product List | Glossary On
Versions: 1 2 3 4 5 6 7 8 9 10 11 12 13 14 15 16 17 18 19 20 21 22 23 24 25 26 27 28 29 30 31 32 33 34 35 36 37 38 39 40 41 42 43 44 45 46 47 48 49 50
000
ASUS43 KJKL 281110
RWRJKL

EAST KENTUCKY HOURLY WEATHER ROUNDUP
NATIONAL WEATHER SERVICE JACKSON KY
700 AM EDT WED SEP 28 2016

NOTE: "FAIR" INDICATES FEW OR NO CLOUDS BELOW 12,000 FEET WITH
NO SIGNIFICANT WEATHER AND/OR OBSTRUCTIONS TO VISIBILITY.

* THESE REPORTS ARE NOT UNDER NWS QUALITY CONTROL AND MAY NOT
  REPORT WEATHER SUCH AS PRECIPITATION AND FOG.

KYZ079-080-083-085-087-088-110-112-115-119-120-281200
...EASTERN KENTUCKY...

CITY           SKY/WX    TMP DP  RH WIND       PRES   REMARKS
JACKSON        CLEAR     50  45  83 CALM      29.93F
LONDON         CLEAR     47  43  86 CALM      29.94F
SOMERSET*      CLEAR     46  46 100 CALM      29.95S
MONTICELLO*    CLEAR     47  45  93 W12       29.96S
WILLIAMSBURG*  SUNNY     45  45 100 CALM      29.95F
MIDDLESBORO*   CLEAR     45  45 100 CALM      29.99R
HARLAN APT*    CLOUDY    46  45  93 CALM      29.98S VSB 1/2
PIKE CO APT*     N/A     51  48  90 S5        29.95S
BIG SANDY APT* SUNNY     53  47  80 CALM      29.94S
MOREHEAD APT*  MOSUNNY   50  46  87 SE6       29.92S
ASHLAND*       PTCLDY    48  45  87 CALM      29.90S
$$

KYZ035-036-041-042-044-050-067-078-099-281200
...CENTRAL KENTUCKY...

CITY           SKY/WX    TMP DP  RH WIND       PRES   REMARKS
MT STERLING*   CLEAR     54  45  71 SW6       29.91S
FLEMING/MASON* PTCLDY    53  45  72 S9        29.89S
DANVILLE*      CLEAR     52  46  82 S6        29.92S
LEXINGTON      MOCLDY    56  45  66 S9        29.89S
FRANKFORT      PTCLDY    57  45  64 S7        29.86S
LOUISVILLE     PTCLDY    63  46  54 S7        29.83S
LEBANON*         N/A     55  46  71 S10       29.89F
GLASGOW*       CLEAR     52  48  85 CALM      29.91S
BOWLING GREEN  CLEAR     56  47  71 S5        29.89F
$$

KYZ091>093-OHZ055-061-077-WVZ005-015-034-035-042-281200
...SOUTHERN OHIO/WEST VIRGINIA...

CITY           SKY/WX    TMP DP  RH WIND       PRES   REMARKS
COVINGTON      MOCLDY    57  48  72 S12       29.82S
COLUMBUS       CLOUDY    58  46  64 SE6       29.83F
DAYTON         TSTM      56  52  86 NW12      29.86R FOG
WILMINGTON     MOCLDY    56  46  69 S9        29.83S
HUNTINGTON     CLEAR     49  45  86 CALM      29.91F
CHARLESTON     PTCLDY    45  44  97 CALM      29.93S
PINEVILLE*     CLEAR     45  42  90 MISG      30.02S
BECKLEY        CLEAR     46  42  86 CALM      29.98S
BLUEFIELD      CLEAR     52  40  63 E5        29.99F
LOGAN CO APT*    N/A     50  48  93 CALM      29.94S
$$

VAZ002-007-008-TNZ017-027-036-066-071-281200
...SOUTHWEST VIRGINIA/EAST TENNESSEE...

CITY           SKY/WX    TMP DP  RH WIND       PRES   REMARKS
WISE*          CLEAR     52  36  54 CALM      30.00S
JONESVILLE*      N/A     45  45 100 CALM      29.99S
ABINGDON*      FOG       57  57  99 CALM      29.97S VSB 3/4
BRISTOL        FOG       59  59 100 CALM      29.96S VSB 1/2
MORRISTOWN*    MOSUNNY   55  52  88 CALM      29.95S
SEVIERVILLE*   MOSUNNY   57  57 100 CALM      29.95S
KNOXVILLE      PTCLDY    56  52  86 CALM      29.95R
OAK RIDGE      PTCLDY    50  47  89 CALM      29.97S
CROSSVILLE     CLEAR     45  42  89 CALM      29.98S
NASHVILLE      CLEAR     50  47  89 S7        29.93F
$$

...KEY TO REMARKS...
VSB - VISIBILITY IN MILES
WCI - WIND CHILL INDEX
HX  - HEAT INDEX

$$



USA.gov is the U.S. government's official web portal to all federal, state and local government web resources and services.